This demonstration page uses our WeatherBlox Daily Observations layout. Learn more.

Left ArrowRight Arrow

39.92423, -83.80882

Hourly Observations for June 4, 2018

Temp ( °F °C ) Dew Point ( °F °C ) Humidity (%) Winds ( mph kmh ) Pressure ( in mb ) Visibility ( mi km ) Precip ( " mm )
12:56 am 00:56 Clear 65 18.3 51 10.6 61 61 WNW 8 13 29.90 1013 10 16 N/A
1:56 am 01:56 Clear 62 16.7 53 11.7 73 73 NW 5 7 29.91 1013 10 16 N/A
2:56 am 02:56 Mostly Clear 59 15 54 12.2 83 83 WNW 5 7 29.92 1013 10 16 N/A
3:56 am 03:56 Clear 58 14.4 53 11.7 84 84 W 7 11 29.93 1013 10 16 N/A
4:56 am 04:56 Clear 58 14.4 53 11.7 84 84 W 8 13 29.93 1014 10 16 N/A
5:56 am 05:56 Clear 56 13.3 52 11.1 87 87 W 8 13 29.95 1014 10 16 N/A
6:56 am 06:56 Sunny 57 13.9 53 11.7 87 87 W 6 9 29.95 1014 10 16 N/A
7:56 am 07:56 Sunny 61 16.1 53 11.7 75 75 WNW 10 17 29.94 1014 10 16 N/A
8:56 am 08:56 Sunny 63 17.2 53 11.7 70 70 WNW 10 17 29.96 1015 10 16 N/A
9:56 am 09:56 Partly Cloudy 66 18.9 51 10.6 59 59 NW 9 15 29.97 1015 10 16 N/A
10:56 am 10:56 Partly Cloudy 67 19.4 51 10.6 57 57 WNW 18 30 29.98 1015 10 16 N/A
11:56 am 11:56 Mostly Sunny 69 20.6 50 10 51 51 W 17 28 29.97 1015 10 16 N/A
12:56 pm 12:56 Mostly Sunny 70 21.1 50 10 49 49 NW 15 24 29.94 1014 10 16 N/A
1:56 pm 13:56 Mostly Sunny 72 22.2 49 9.4 44 44 NW 17 28 29.93 1014 10 16 N/A
2:56 pm 14:56 Sunny 74 23.3 49 9.4 41 41 WNW 12 19 29.93 1014 10 16 N/A
3:56 pm 15:56 Sunny 74 23.3 48 8.9 40 40 NW 17 28 29.93 1014 10 16 N/A
4:56 pm 16:56 Sunny 74 23.3 47 8.3 38 38 WNW 15 24 29.92 1013 10 16 N/A
5:56 pm 17:56 Sunny 74 23.3 46 7.8 37 37 WNW 16 26 29.92 1013 10 16 N/A
6:56 pm 18:56 Sunny 73 22.8 45 7.2 37 37 WNW 17 28 29.92 1013 10 16 N/A
7:56 pm 19:56 Sunny 72 22.2 45 7.2 38 38 WNW 12 19 29.92 1013 10 16 N/A
8:56 pm 20:56 Sunny 68 20 44 6.7 42 42 NW 8 13 29.92 1013 10 16 N/A
9:56 pm 21:56 Clear 63 17.2 46 7.8 54 54 WNW 6 9 29.93 1014 10 16 N/A
10:56 pm 22:56 Clear 61 16.1 46 7.8 58 58 WSW 3 6 29.94 1014 10 16 N/A
11:56 pm 23:56 Clear 59 15 48 8.9 67 67 SW 5 7 29.92 1013 10 16 N/A

Powered by AerisWeather